TimeEST,TemperatureF,Dew PointF,Humidity,Sea Level PressureIn,VisibilityMPH,Wind Direction,Wind SpeedMPH,Gust SpeedMPH,PrecipitationIn,Events,Conditions,WindDirDegrees,DateUTC
12:08 AM,55.4,53.6,94,29.73,9.0,South,8.1,-,0.00,Rain,Light Rain,180,2012-12-10 05:08:00
12:38 AM,55.4,53.6,94,29.72,5.0,SSW,8.1,-,0.07,Rain,Light Rain,200,2012-12-10 05:38:00
12:51 AM,55.9,54.0,93,29.73,10.0,South,6.9,-,0.07,Rain,Light Rain,180,2012-12-10 05:51:00
1:07 AM,55.4,53.6,94,29.70,10.0,South,8.1,-,0.00,Rain,Light Rain,190,2012-12-10 06:07:00
1:34 AM,55.4,53.6,94,29.69,10.0,South,8.1,-,0.01,,Overcast,180,2012-12-10 06:34:00
1:51 AM,55.9,54.0,93,29.70,10.0,South,8.1,-,0.01,Rain,Light Rain,170,2012-12-10 06:51:00
2:51 AM,57.0,54.0,89,29.69,8.0,SSW,9.2,-,0.01,Rain,Light Rain,200,2012-12-10 07:51:00
3:51 AM,57.0,55.0,93,29.68,6.0,SSW,11.5,-,0.07,Rain,Light Rain,210,2012-12-10 08:51:00
4:51 AM,55.9,52.0,87,29.66,10.0,SSW,12.7,-,0.03,Rain,Light Rain,210,2012-12-10 09:51:00
5:51 AM,55.0,52.0,89,29.67,10.0,South,8.1,-,0.01,Rain,Light Rain,190,2012-12-10 10:51:00
6:34 AM,53.6,51.8,94,29.64,10.0,SSW,9.2,-,0.00,,Overcast,200,2012-12-10 11:34:00
6:51 AM,55.0,51.1,86,29.66,10.0,SSW,8.1,-,0.00,,Overcast,210,2012-12-10 11:51:00
7:39 AM,53.6,51.8,94,29.60,10.0,South,11.5,-,0.00,Rain,Light Rain,170,2012-12-10 12:39:00
7:51 AM,54.0,52.0,93,29.65,10.0,SSW,9.2,-,0.00,Rain,Light Rain,210,2012-12-10 12:51:00
8:37 AM,55.4,51.8,88,29.63,2.0,SW,9.2,18.4,0.00,Rain,Light Rain,220,2012-12-10 13:37:00
8:51 AM,55.0,52.0,89,29.65,3.0,SSW,10.4,17.3,0.01,Rain,Light Rain,210,2012-12-10 13:51:00
9:24 AM,55.4,51.8,88,29.63,7.0,SSW,9.2,-,0.02,Rain,Light Rain,200,2012-12-10 14:24:00
9:51 AM,55.0,52.0,89,29.65,7.0,SSW,9.2,17.3,0.02,,Light Drizzle,200,2012-12-10 14:51:00
10:51 AM,55.9,52.0,87,29.62,10.0,SSW,12.7,-,0.00,,Light Drizzle,200,2012-12-10 15:51:00
11:29 AM,55.4,51.8,88,29.58,10.0,South,10.4,-,0.00,,Overcast,190,2012-12-10 16:29:00
11:51 AM,55.9,52.0,87,29.59,10.0,SSW,8.1,-,0.00,,Overcast,210,2012-12-10 16:51:00
12:09 PM,55.4,51.8,88,29.57,2.0,SSW,11.5,-,0.00,Rain,Rain,210,2012-12-10 17:09:00
12:20 PM,55.4,51.8,88,29.57,4.0,SW,6.9,17.3,0.02,Rain,Light Rain,230,2012-12-10 17:20:00
12:31 PM,51.8,48.2,88,29.57,4.0,NW,8.1,-,0.03,Rain,Light Rain,320,2012-12-10 17:31:00
12:42 PM,50.0,48.2,94,29.57,4.0,NW,10.4,-,0.03,Rain,Light Rain,320,2012-12-10 17:42:00
12:51 PM,50.0,48.0,93,29.59,4.0,NNW,9.2,-,0.05,Rain,Light Rain,330,2012-12-10 17:51:00
1:51 PM,48.9,46.9,93,29.59,4.0,NW,6.9,-,0.20,Rain,Light Rain,310,2012-12-10 18:51:00
2:34 PM,48.2,46.4,93,29.57,5.0,NW,11.5,-,0.10,Rain,Light Rain,310,2012-12-10 19:34:00
2:51 PM,48.0,46.0,93,29.59,4.0,NW,10.4,-,0.15,Rain,Rain,310,2012-12-10 19:51:00
3:51 PM,46.0,43.0,89,29.62,5.0,NNW,13.8,-,0.06,Rain,Light Rain,340,2012-12-10 20:51:00
4:51 PM,42.1,39.0,89,29.65,7.0,NNW,15.0,25.3,0.05,Rain,Light Rain,330,2012-12-10 21:51:00
5:51 PM,39.0,36.0,89,29.70,9.0,WNW,12.7,-,0.04,Rain,Light Rain,300,2012-12-10 22:51:00
6:13 PM,39.2,35.6,87,29.70,10.0,NW,15.0,-,0.00,Rain,Light Rain,320,2012-12-10 23:13:00
6:51 PM,37.9,35.1,89,29.75,6.0,WNW,11.5,-,0.00,Rain,Light Rain,300,2012-12-10 23:51:00
8:51 PM,36.0,34.0,93,29.76,6.0,WNW,3.5,-,0.02,Rain,Light Rain,300,2012-12-11 01:51:00
9:51 PM,36.0,34.0,93,29.78,8.0,WSW,5.8,-,0.01,Rain,Light Rain,250,2012-12-11 02:51:00
10:26 PM,35.6,33.8,93,29.78,7.0,WSW,4.6,-,0.00,Rain,Light Rain,240,2012-12-11 03:26:00
10:51 PM,36.0,34.0,93,29.82,6.0,WSW,4.6,-,0.00,Rain-Snow,Light Rain,250,2012-12-11 03:51:00
11:51 PM,36.0,34.0,93,29.83,7.0,West,6.9,-,0.01,Rain-Snow,Light Snow,260,2012-12-11 04:51:00